Location: Poughquag
(41.6090°N, 73.6820°W)
Time: 08:19:53
(UTC-05:00)

SR - Pass Details

Date: 10 December 2023
Orbit: 574 x 868 km, 66.7° (Epoch: 25 February)

Event Time Altitude Azimuth Distance (km) Brightness Sun altitude
Rises 12:31:18 0° 282° (WNW) 3,382 ? 24.7°
Drops below altitude 10° 12:32:16 - 288° (WNW) 3,149 ? 24.6°
Maximum altitude 12:37:24 10° 331° (NNW) 2,509 ? 24.4°
Sets 12:43:37 0° 20° (NNE) 3,462 ? 24.2°
